Terminal Aerodrome Forecast
Issued by NWS

Home | Current Version | Previous Version | Text Only | Print | Product List | Glossary On
Versions: 1 2 3 4 5 6 7 8 9 10 11 12
000
FTUS45 KBOI 291727
TAFJER
TAF
KJER 291727Z 2918/3018 24005KT P6SM SKC
     FM292100 26010G20KT P6SM SKC
     FM300300 16005KT P6SM SKC=

USA.gov is the U.S. government's official web portal to all federal, state and local government web resources and services.